FREGAT R/B (44300 NORAD) Tracking and Keplerian Element Data

This shows tracking and keplerian element data for the satellite.

Feedback or suggestion? Click here.




ElementValue
Catalog44300
NameFREGAT R/B
Epoch Orbit59
Epoch Day175.5584754
Epoch Year2019
RAAN279.2438
Inclination64.7421
Eccentricity0.0091102
Argument of Perigee133.1204
Mean Anonmoly227.6795
Mean Motion2.09029008
Decay Rate-3.2E-07
L11 44300U 19030B 19175.55847540 -.00000032 00000-0 00000+0 0 9990
L22 44300 64.7421 279.2438 0091102 133.1204 227.6795 2.09029008 591

Live tracking and technical data element details for FREGAT R/B (NORAD 44300). FREGAT R/B can be tracked NOW for your location showing map with azimuth and elevation plus other details from your city location.

Track the satellite on the map from your city or location and see movement details for azimuth, elevation, latitude, longitude, range, height, and movement on the map or in text.







IsCatalogInMostPopularTable: catalog: 44300, numindb: 10
Update: records affected: 1



GetName: 44300 FREGAT R/B

Hit Count: updated at: Tue, 20 Aug 2019 18:24:59 GMT